Showing default

INTELSAT 35E, 42818

Orbit data source: Space-Track

INTELSAT 35E, 42818 is a payload satellite owned by Intelsat SA (US) (US) in GEO that was launched on Wed, 05 Jul 2017 UTC via an FALCON 9 launch vehicle from the Air Force Eastern Test Range (AFETR). Payloads include a variety of satellites, spacecraft, and rockets equipped with specific instruments for various scientific and technological missions. These include communications satellites like Starlink; space stations such as the ISS; scientific satellites like the Hubble; Earth observation satellites from companies like Planet Labs, Umbra, and HawkEye 360; GPS; miniature CubeSats for education and research; and military/defense satellites.

Not visible in the next 10 days
INTELSAT 35E details
Identifier
42818, 2017-041A
Orbit
GEO
Last TLE update23 hours ago
Origin
Flag of USIntelsat SA (US) (US / ITSO)
ManufacturerBoeing/ES
MissionOperational Commercial Communications
Bus & MotorBSS-702MP, IHI BT-4
Mass6,761 kg wet, ~3,500 kg dry
Launch date (UTC)
2017-07-05 (8 years ago)
Launch vehicle
FALCON 9
Launch site
Air Force Eastern Test Range (AFETR)
Object type
Payload
Rocket body
Debris
Shape & HBRBox + 2 Pan, 44 m
Radar Cross Section59.953 m², Large (>1 m²)

Expand to show TLE details & history

TLE from 23 hours ago
0 INTELSAT 35E
1 42818U 17041A   25018.10158424 -.00000231  00000-0  00000-0 0  9994
2 42818   0.0182  64.5885 0002430 241.0380 174.1937  1.00272372 27655
Epoch: 2025-01-18T02:26Z
Definitive object data (Epoch: 2025-01-18T02:26:16.878Z)
Latitude0.0328°
Longitude-34.47785°
Altitude35,796.158 km
Speed3.074 km/s
True Right ascension07h 59m 23s
True Declination0° 01' 58"
Sunlit
Object was in daylight at TLE epoch
Visualization TLE readout
Latitude0.02408°
Longitude-53.61213°
Altitude35,795.331 km
Speed3.074 km/s
Apparent Right ascension07h 08m 51s
Apparent Declination-5° 40' 17"
Sunlit
Object is in daylight
Visualization observer readout
Local Sidereal Time02:00:15
Azimuth102.652° ESE
Elevation6.103°
Doppler factor1
Orbital elements
Apogee altitude35,797.747 km
Perigee altitude35,777.255 km
Semi-major axis42,165.638 km
Eccentricity0.000243
Inclination0.0182°
RAAN64.5885°
Arg. of periapsis241.038°
True anomaly174.19652°
Mean anomaly174.1937°
Eccentric anomaly174.19511°
Mean motion0.25067 °/min
BSTARUnknown
Orbital period1436.14 mins
Loading historical data...
42818 neighbors
Authenticating...
Loading maneuver chart data...
Loading historical data...
Loading historical data...
Loading historical data...
Loading historical data...
Loading historical data...
Loading historical data...
Loading historical data...
Other satellites on launch #41 in the year 2017 (2017-07-05 UTC)

INTELSAT 35E Visibility forecast

Observer location: undefined°, undefined

INTELSAT 35E is not visible in the next 10 days
Span
Click to sort rows by Start time (UTC) header in descending order
Start Az.
Max El. time (UTC)
Max El. Az.
Max El.
End time (UTC)
End Az.
|